User: anonymous   Login
Location: Byszew
(52.1813°N, 19.2693°E)
Time: 05:48:03
(UTC+00:00)
Language:

SPROUT - Orbit

View from above orbital plane
View from above orbital plane
View from above satellite
View from above satellite

Ground track
Ground track

The orbit data is extracted from the following two-line orbital elements,

1 39770U 14029E   22176.83833011  .00005932  00000-0  60519-3 0  9990
2 39770  97.9436 293.8276 0009897  64.8220 295.3996 14.90992018438919
Epoch (UTC): 25 June 2022 20:07:11
Eccentricity: 0.0009897
inclination: 97.9436°
perigee height: 588 km
apogee height: 602 km
right ascension of ascending node: 293.8276°
argument of perigee: 64.8220°
revolutions per day: 14.90992018
mean anomaly at epoch: 295.3996°
orbit number at epoch: 43891

The dashed part of the orbit path shows where the satellite is in the earth's shadow,  

DLR